GFSMA_500_rhum_102.txt.gz
RH
12 30 32 23 42 58 61 67 81 79 74 82 91 97 91 83 92 63 57 47 51 30 30 61 27 31 42 49 72 68 65 65 64 67 68 68 72 74 70 60 45 27 18
7 18 31 26 32 46 62 47 72 83 77 76 83 97 88 94 85 70 63 47 37 26 36 51 28 33 44 71 77 74 69 65 54 74 73 66 64 62 66 67 66 52 37
6 7 11 19 19 37 36 44 92 87 78 86 96 96 91 91 71 54 67 68 41 40 48 55 52 63 67 66 76 73 78 61 67 78 84 79 74 73 71 69 68 68 58
6 7 9 12 22 37 38 71 93 88 79 92 100 97 92 88 52 65 64 63 42 51 64 74 80 81 60 62 74 79 82 72 75 77 80 81 80 76 78 78 77 80 81
6 8 10 12 14 34 52 67 95 93 73 85 100 97 88 90 71 73 81 71 61 68 78 72 76 79 63 66 73 87 84 85 80 76 77 79 79 78 82 83 86 88 93
7 7 10 11 11 29 57 92 96 95 82 85 98 96 85 79 77 66 76 84 86 85 78 77 76 62 62 71 76 90 94 92 92 88 78 82 89 84 82 83 87 90 96
8 7 10 10 11 47 72 84 95 94 88 72 97 95 79 76 80 65 68 78 80 80 79 80 68 68 76 85 89 85 83 90 87 86 91 91 90 88 97 98 96 96 96
10 8 10 10 24 62 63 84 96 96 94 89 87 90 92 79 79 66 56 81 85 78 86 78 77 83 92 97 96 96 95 94 85 86 96 97 97 97 94 93 95 96 97
10 10 8 14 34 50 79 97 95 93 98 88 94 91 96 88 88 84 68 57 59 88 81 75 91 96 91 96 97 99 99 99 96 95 92 95 96 97 97 96 96 96 96
12 10 8 21 46 79 96 97 97 97 96 95 97 97 96 97 95 92 85 82 81 83 87 88 91 94 91 100 96 94 96 97 96 96 96 97 94 89 89 92 96 97 96
12 10 9 13 56 67 97 98 97 95 96 96 99 98 95 96 96 95 85 86 82 91 88 91 96 97 100 98 100 98 97 98 94 95 97 94 95 96 97 98 97 97 97
13 9 10 12 47 68 96 94 97 91 95 98 98 96 96 96 95 95 93 91 92 87 92 94 92 96 96 93 95 96 99 93 88 92 96 99 99 98 97 97 97 98 97
15 9 11 12 43 70 96 97 96 96 98 96 97 96 97 95 84 76 98 98 99 95 96 95 96 95 93 91 90 89 88 89 90 92 92 91 90 94 95 95 98 98 90
16 9 11 12 28 68 96 96 96 96 97 97 97 97 96 86 74 84 95 95 95 96 97 94 90 87 86 87 95 93 86 86 90 83 84 86 89 92 91 86 86 89 88
17 10 10 11 14 58 83 94 97 97 96 97 97 96 96 97 97 96 96 94 90 75 84 96 89 78 75 76 76 73 88 89 87 78 70 69 71 82 91 96 90 85 93
19 13 10 10 11 13 41 64 95 96 96 97 96 97 97 98 97 95 72 75 80 75 77 74 83 84 63 44 35 56 78 94 91 84 64 47 55 64 65 71 66 52 52
22 16 11 12 10 11 13 28 55 62 59 65 83 95 98 94 82 78 81 78 76 81 78 84 74 46 42 37 38 39 68 96 84 59 52 52 50 46 47 47 47 47 47
26 18 12 12 12 12 11 12 18 91 96 98 100 85 63 60 64 44 42 45 56 56 60 53 36 28 26 32 34 36 38 43 56 57 49 45 41 35 34 36 38 35 30
36 21 15 10 11 14 16 15 15 17 47 41 46 44 87 45 31 23 21 21 23 24 25 28 31 29 28 26 25 27 30 32 29 30 33 44 53 56 56 54 55 56 56
54 26 18 13 11 12 16 17 15 17 18 20 20 20 20 24 22 23 22 21 19 21 24 28 35 38 41 49 49 58 57 58 64 76 88 90 88 79 72 69 72 70 76
61 26 23 15 13 16 17 19 22 21 20 20 18 19 20 22 23 25 26 27 30 32 33 37 41 41 57 78 83 84 78 85 88 84 86 92 98 92 92 86 92 99 100
94 57 31 22 19 15 16 18 20 22 23 24 24 26 26 24 26 27 30 32 32 33 36 39 46 66 83 88 94 95 84 76 75 77 76 92 100 99 94 94 86 88 95
98 98 77 36 24 20 19 18 19 19 21 22 23 24 24 26 32 35 36 39 39 50 70 81 82 78 77 81 93 98 98 97 96 82 97 97 98 98 89 90 99 99 98
97 98 91 85 46 33 26 24 22 22 24 24 28 58 80 82 62 59 68 86 89 87 84 83 71 60 62 71 88 80 87 88 83 69 63 59 58 49 40 32 28 17 8
96 98 95 95 100 96 82 59 39 37 38 52 89 89 85 84 87 87 90 85 92 90 73 78 68 56 48 49 46 40 38 35 32 27 25 22 18 12 9 7 7 7 6
92 98 97 95 98 100 98 98 97 60 66 100 100 92 80 98 98 99 99 98 99 70 72 96 59 44 42 41 40 37 34 30 28 22 16 13 11 11 11 10 9 8 8

GFSMA_500_rhum_105.txt.gz
RH
14 6 6 19 29 21 29 37 69 56 64 78 72 83 77 97 96 90 84 64 43 38 53 19 20 30 34 40 57 52 76 72 74 64 67 74 70 65 62 63 63 63 54
16 6 6 7 22 28 24 33 58 52 49 76 77 88 97 99 97 96 91 74 53 47 56 21 20 58 40 27 37 66 82 83 82 72 56 68 72 74 71 68 68 67 66
19 11 6 7 7 12 25 34 36 68 88 81 82 76 84 98 88 96 90 71 52 54 44 30 37 49 49 21 59 69 80 84 86 76 78 83 78 78 79 74 70 70 69
22 18 7 6 7 9 12 46 49 78 87 85 83 78 91 98 96 97 88 79 61 62 33 23 26 43 52 64 71 63 75 86 88 90 87 91 87 80 78 76 80 82 80
27 22 14 6 7 11 14 20 59 65 86 89 80 95 98 96 97 96 89 71 64 68 65 36 41 61 74 83 84 63 67 78 94 90 90 88 86 82 82 86 82 83 84
34 27 20 8 7 11 12 12 69 62 95 92 82 96 99 93 95 95 78 62 64 67 58 37 50 80 75 79 69 64 71 79 96 99 96 92 91 89 88 88 93 95 100
38 32 23 10 8 11 10 10 44 78 84 83 82 82 99 98 87 95 88 77 78 81 71 61 84 85 75 74 60 67 83 89 94 88 88 92 88 93 98 95 92 95 95
36 37 25 10 10 10 10 23 60 81 79 84 89 78 95 97 87 97 87 87 69 83 88 88 85 77 77 73 79 90 97 100 97 99 98 95 88 94 100 100 99 98 98
38 40 27 10 8 10 16 52 61 89 92 98 88 78 86 94 97 91 98 87 75 85 88 86 92 91 81 84 96 98 97 97 90 96 98 96 97 98 98 98 98 96 96
35 41 30 10 7 9 12 46 76 98 97 97 83 81 77 86 96 94 77 93 86 88 91 80 89 81 91 97 97 98 96 96 94 95 99 100 98 98 98 98 97 98 98
38 43 32 12 8 8 12 40 76 96 97 96 85 83 82 94 96 94 73 74 75 66 69 89 84 93 98 96 95 96 96 95 91 93 98 97 99 99 99 99 99 97 99
40 46 35 12 7 8 17 56 87 98 97 96 96 88 86 97 97 97 97 95 91 73 87 93 97 95 96 98 97 95 90 94 91 95 95 95 96 97 98 98 98 98 98
36 49 36 12 7 8 18 67 95 96 97 96 97 87 93 97 96 96 95 96 91 90 91 93 95 100 97 99 100 99 95 87 90 92 92 94 92 95 95 95 92 86 84
38 48 37 13 6 9 14 65 89 96 98 98 96 94 97 96 96 96 97 95 91 89 89 92 96 100 98 98 94 91 89 96 94 90 93 87 95 88 90 90 89 87 84
36 44 41 15 8 9 12 72 77 96 97 96 97 98 97 96 97 97 96 94 98 97 98 97 97 97 94 94 93 75 69 67 88 98 97 87 79 74 64 72 83 87 83
39 43 49 17 10 10 12 18 40 65 97 97 97 96 96 96 96 96 97 95 88 86 88 88 91 88 95 92 75 60 39 33 56 86 97 91 84 60 47 45 44 45 44
46 48 52 21 13 13 13 12 15 82 96 97 96 97 97 97 97 97 94 89 77 66 75 84 82 84 85 78 59 42 32 36 37 70 83 77 56 46 42 40 40 39 40
53 58 58 28 16 14 19 13 12 60 92 93 94 96 96 96 96 98 92 73 60 77 92 89 68 63 78 59 46 34 38 42 39 43 52 43 36 30 23 23 29 39 47
64 63 64 41 19 16 18 19 14 14 55 90 96 94 95 88 70 67 62 70 69 56 45 42 69 56 35 29 32 29 24 23 28 35 36 38 39 44 53 62 73 77 81
65 67 67 55 26 19 16 16 15 15 15 20 69 97 82 86 62 97 86 43 28 23 22 22 22 24 26 24 20 25 30 37 53 60 65 71 73 73 70 74 78 93 86
60 67 73 69 50 26 20 17 19 18 17 17 19 24 41 31 51 60 32 23 19 18 17 19 22 27 29 28 32 36 51 74 92 100 99 95 96 86 83 85 87 90 94
84 81 85 94 70 32 28 21 18 19 18 17 17 18 20 20 20 21 20 18 17 21 25 28 31 35 36 35 41 46 62 82 92 91 92 99 96 91 92 76 73 92 100
100 90 79 85 93 71 43 27 20 18 20 20 23 24 26 25 25 26 27 27 27 28 30 31 33 35 39 47 60 79 97 95 94 100 97 91 96 100 97 87 65 60 49
100 99 86 87 96 98 89 53 36 23 21 19 19 20 22 24 25 25 27 27 27 31 35 40 44 56 77 90 91 93 91 98 88 93 98 76 73 82 70 40 30 28 24
98 100 88 81 90 100 96 87 62 37 32 29 26 25 24 25 28 28 35 78 86 79 75 79 86 90 88 89 99 95 100 88 47 44 42 38 35 32 29 22 17 14 15
97 92 87 81 88 100 99 96 91 82 83 74 63 64 50 52 73 82 96 92 79 76 93 92 89 92 97 99 100 100 99 82 48 51 44 36 30 22 20 19 19 21 20

GFSMA_500_rhum_108.txt.gz
RH
16 17 16 12 6 7 26 24 27 33 56 61 60 69 96 96 97 97 96 96 81 71 39 16 27 24 18 38 40 61 68 64 84 82 79 68 72 78 73 68 67 65 62
17 21 17 20 8 5 6 21 23 33 38 52 44 68 72 85 96 97 97 96 92 70 54 19 36 21 29 24 44 37 46 72 86 87 85 72 69 81 75 75 72 68 66
19 21 22 19 18 7 6 6 10 30 40 46 83 82 78 92 94 96 97 98 96 63 61 26 52 20 21 53 74 33 39 68 78 92 96 84 80 87 90 85 79 75 74
21 22 25 22 21 14 7 7 7 12 44 66 81 69 74 87 94 97 96 96 94 64 57 30 54 35 33 47 71 38 59 67 70 81 89 95 96 96 95 93 88 87 86
21 22 25 27 22 20 8 7 7 8 17 74 83 76 79 78 90 98 96 95 95 73 57 55 53 29 25 32 73 59 83 76 63 69 84 98 95 95 97 100 96 94 93
23 23 23 27 27 25 11 6 8 7 21 79 72 84 82 76 96 99 97 95 96 75 62 60 54 36 26 44 63 85 78 84 56 79 90 98 100 99 96 95 96 99 99
26 26 23 25 29 30 14 7 7 8 15 60 59 80 87 77 99 98 97 96 96 81 69 68 68 58 29 56 89 74 87 64 60 61 86 98 96 94 91 92 96 96 98
28 28 25 26 28 33 17 6 6 10 19 37 67 86 87 74 93 94 97 97 91 72 73 68 67 60 43 84 84 69 72 59 74 88 97 100 98 99 98 97 96 96 97
28 29 27 30 31 35 21 7 8 10 35 51 70 75 75 80 80 80 96 97 89 88 92 86 88 80 83 84 81 80 80 77 93 96 98 100 99 100 99 98 97 98 97
33 31 31 34 33 37 24 7 7 10 19 52 87 95 89 89 83 95 97 97 95 92 96 87 97 94 92 93 94 89 86 91 96 95 96 98 100 98 97 95 96 97 95
37 31 32 37 37 40 27 8 7 10 19 59 91 98 90 86 84 99 97 97 98 97 94 92 95 85 81 95 93 93 93 95 95 95 97 99 99 97 98 92 91 99 100
38 31 32 36 30 38 30 8 7 10 49 86 98 98 96 85 90 97 99 96 99 96 90 75 75 80 76 90 92 93 95 94 96 98 97 97 95 89 90 94 93 90 89
36 33 30 35 25 35 32 9 7 11 68 97 96 98 96 95 97 100 94 97 97 95 92 82 79 71 84 94 94 92 96 97 99 99 93 91 88 92 90 88 86 87 88
35 33 35 34 23 34 33 10 7 19 93 97 97 97 94 95 97 96 97 96 96 95 97 98 95 93 95 98 95 95 96 95 91 92 91 82 86 91 79 81 70 70 74
39 37 38 32 27 31 35 12 8 12 66 97 97 97 96 97 96 97 95 97 97 96 98 96 97 96 96 96 100 100 96 94 89 80 74 83 86 90 85 74 67 50 50
40 35 39 36 34 29 37 15 7 10 34 95 97 97 97 96 97 96 96 97 96 96 97 96 98 97 95 97 99 98 99 96 83 62 39 50 85 90 86 74 68 44 42
44 37 51 44 42 33 39 21 7 10 12 52 98 97 97 96 96 97 96 96 97 97 97 96 94 95 97 98 100 98 88 84 68 39 23 25 52 75 70 57 41 40 41
77 45 48 52 51 53 44 30 10 9 10 44 98 97 97 97 97 97 97 98 98 97 94 97 100 99 96 95 90 91 83 71 49 29 25 26 24 23 25 30 26 27 32
73 39 49 57 64 64 52 37 14 9 14 15 89 95 93 97 97 97 98 97 96 97 97 97 100 99 99 92 88 80 80 52 32 27 23 19 22 22 27 33 45 61 78
59 44 57 58 72 70 62 45 21 11 13 19 20 81 92 96 98 97 97 96 97 90 90 89 80 81 73 58 64 89 64 40 34 28 41 42 45 46 56 75 88 98 87
38 44 44 57 81 85 75 58 36 15 12 15 20 27 63 96 97 98 97 78 72 97 69 40 34 38 36 30 35 35 35 35 42 45 53 57 75 82 98 96 90 99 100
59 62 57 55 84 99 91 75 53 24 14 14 17 19 18 31 74 97 96 56 100 99 45 26 25 27 28 29 32 33 38 42 41 41 43 65 72 85 90 93 100 100 99
97 86 72 71 89 100 95 88 73 37 20 17 18 20 19 19 22 33 72 72 41 32 28 28 27 31 34 36 39 43 42 41 43 46 59 78 88 86 91 96 100 100 93
48 66 76 95 97 99 95 92 89 74 44 21 20 18 22 23 23 25 26 28 26 27 28 31 33 34 36 37 36 39 39 40 55 96 100 97 97 96 98 87 85 77 48
98 69 68 85 100 98 99 91 93 90 80 69 43 24 22 21 22 23 24 26 26 26 26 28 29 30 33 36 41 45 61 94 99 98 99 100 98 99 97 60 46 48 44
100 52 99 68 82 100 100 96 89 89 94 93 82 78 42 32 36 32 28 27 28 27 30 32 39 71 94 96 95 98 98 100 98 99 99 97 99 98 97 68 53 49 38

GFSMA_500_rhum_114.txt.gz
RH
21 21 19 18 16 16 17 16 13 10 4 7 16 20 27 47 56 60 70 96 97 96 96 91 78 75 60 40 25 30 56 76 72 72 58 67 86 77 68 72 71 69 70
23 23 22 21 18 20 21 19 16 15 12 5 5 11 24 37 41 47 64 97 96 97 97 97 86 65 36 30 26 24 45 71 67 56 56 61 89 87 80 64 67 77 77
25 25 24 22 21 20 21 20 20 18 16 13 6 5 6 27 56 55 72 88 97 97 97 97 94 87 40 19 20 20 26 48 40 53 39 56 78 89 88 82 78 81 88
27 26 26 26 22 22 20 19 20 18 20 20 12 5 4 7 41 83 85 89 91 96 97 96 97 94 55 20 18 30 25 52 30 79 49 53 74 77 79 86 92 89 87
30 28 26 27 25 22 23 22 18 20 22 22 16 5 4 5 11 80 69 85 94 96 96 96 96 96 80 21 20 29 26 57 38 73 45 65 82 65 68 78 85 90 91
33 31 27 27 28 25 24 23 19 19 25 23 19 6 8 9 31 65 64 75 90 97 96 96 97 98 94 26 32 39 42 56 46 70 75 54 88 83 61 71 88 94 91
37 34 29 28 31 28 26 26 23 22 28 27 23 12 12 9 35 49 59 72 96 96 97 96 97 96 89 27 37 52 54 42 50 45 63 81 82 68 57 69 85 92 92
41 38 29 30 34 32 27 27 26 24 30 29 28 16 6 7 49 58 56 70 90 94 96 97 97 97 79 54 33 37 39 31 22 45 53 88 82 76 63 78 92 85 92
43 38 32 32 37 35 30 29 28 23 30 32 30 20 6 6 16 32 44 52 84 91 94 98 97 97 91 64 33 37 32 25 32 38 47 85 73 74 71 90 88 82 82
44 40 38 36 38 40 37 34 30 24 26 31 32 23 8 6 10 15 30 66 72 74 92 97 96 96 97 65 51 54 48 57 66 39 48 79 76 74 80 94 84 81 85
38 48 43 40 42 43 40 39 35 27 27 30 33 27 9 7 15 32 43 71 88 88 94 96 97 96 97 77 93 64 59 57 58 61 75 84 86 83 91 96 84 79 85
60 63 55 45 46 48 44 43 38 29 24 30 31 28 10 8 48 76 92 89 88 97 92 94 96 97 97 95 93 81 72 80 84 75 89 88 87 86 93 86 82 83 82
67 64 61 42 47 53 45 40 47 38 23 26 27 28 13 8 22 64 99 87 91 89 85 82 97 96 98 97 95 95 91 97 99 94 94 94 85 90 90 88 82 84 79
98 89 59 48 46 47 38 33 35 29 26 21 24 28 17 8 15 52 100 95 86 84 88 88 97 96 97 99 97 95 95 94 97 93 85 76 88 93 88 92 88 83 83
94 93 84 69 47 44 37 32 30 31 28 19 23 28 21 8 10 62 88 89 83 96 81 83 94 97 94 96 97 96 97 96 96 94 76 82 92 94 92 89 88 82 68
90 89 94 80 67 50 56 48 32 33 27 22 21 32 25 12 8 14 59 86 94 95 87 88 97 96 96 97 99 90 99 96 95 96 88 95 90 96 91 86 91 82 47
66 62 74 73 74 79 79 78 66 33 30 25 25 34 27 17 7 10 58 90 90 93 98 97 97 96 97 96 96 88 97 99 98 97 95 94 88 93 94 98 96 63 35
69 71 72 74 72 82 96 95 82 43 39 34 31 31 30 19 9 18 62 87 97 95 97 97 97 98 97 96 96 92 95 96 90 95 96 94 89 95 97 94 78 57 32
93 91 91 85 82 88 94 97 93 59 47 43 33 30 35 23 11 11 69 93 96 94 96 98 97 97 97 96 96 98 98 91 96 94 94 97 98 97 98 86 73 56 29
83 72 77 85 93 94 95 96 96 93 61 47 38 38 43 28 15 9 42 85 66 96 96 98 98 97 97 96 97 98 97 97 97 96 98 98 93 98 96 83 76 51 31
87 87 88 93 98 95 95 99 98 98 83 68 50 44 50 39 18 10 10 60 80 92 97 97 97 97 94 96 98 98 97 93 95 93 92 90 95 97 79 81 73 46 31
94 95 90 86 82 83 84 98 96 100 87 66 52 47 44 52 30 12 13 15 41 83 96 96 97 98 97 98 93 98 98 95 82 75 89 100 100 98 78 77 58 39 34
30 33 40 45 40 56 73 76 97 99 84 59 68 62 54 62 50 21 15 13 18 38 97 98 97 97 98 98 99 100 99 95 55 35 37 40 47 46 45 41 36 34 42
26 83 79 42 75 98 96 97 98 96 81 65 86 83 72 68 69 35 19 18 17 24 46 98 84 71 62 77 70 89 97 98 84 99 72 29 28 30 33 34 39 43 48
36 90 99 53 74 99 61 96 97 79 83 83 76 74 66 68 77 84 39 22 22 94 46 24 94 99 96 98 93 95 91 40 33 34 29 30 33 37 36 36 38 41 46
44 99 99 86 84 98 96 97 98 100 90 96 98 92 81 73 71 82 87 86 43 36 49 92 27 80 98 35 37 80 58 61 69 35 33 34 34 38 38 44 64 82 92

GFSMA_500_rhum_117.txt.gz
RH
22 22 19 16 14 12 12 12 11 12 11 11 6 4 10 15 19 29 47 65 68 95 97 96 92 74 70 82 89 39 34 43 58 70 72 64 56 76 72 70 70 68 67
23 24 22 20 18 14 13 13 12 12 13 14 13 10 4 4 14 29 47 52 84 95 98 97 95 89 71 77 79 52 28 34 52 66 72 61 51 68 82 80 70 65 73
25 25 26 24 22 19 16 15 14 12 15 14 16 16 10 4 4 4 25 57 55 82 97 97 97 96 91 75 70 39 27 28 44 58 69 55 49 55 77 85 83 79 75
28 28 28 26 24 23 20 18 18 15 14 15 18 19 13 5 3 4 11 65 77 77 82 97 96 97 97 77 61 27 27 24 29 43 44 61 70 44 72 72 71 74 80
32 31 30 29 26 25 23 20 19 19 15 14 16 22 18 7 6 6 5 41 74 71 78 90 94 97 97 93 90 43 18 20 22 49 40 49 71 46 75 72 66 76 85
37 33 33 33 29 27 26 24 21 20 18 12 14 20 22 13 10 11 14 40 55 76 64 86 95 96 97 97 95 71 18 20 23 40 45 43 65 71 68 84 71 67 78
41 37 36 37 33 29 27 28 25 22 21 15 13 21 27 18 8 7 20 46 53 57 69 82 95 96 96 97 97 89 52 22 23 46 48 45 69 70 73 79 65 65 77
45 41 43 40 36 31 27 32 31 28 26 20 14 16 29 23 11 7 15 47 56 55 64 86 92 98 97 97 97 96 58 30 32 54 44 45 43 57 69 78 78 68 79
52 50 48 43 39 34 29 34 37 32 32 27 18 14 22 28 18 7 8 19 32 43 56 92 95 95 96 96 96 98 64 44 40 34 32 24 26 50 66 78 74 71 85
58 52 48 47 43 40 33 37 41 36 34 33 25 17 17 26 26 8 9 14 17 23 53 69 67 93 95 96 95 96 61 35 33 32 24 22 37 41 47 73 75 75 90
68 57 48 50 54 50 43 44 47 42 36 36 30 21 17 21 25 10 9 26 49 45 59 76 83 92 95 96 96 98 85 42 56 40 39 54 64 42 56 84 79 84 97
86 72 59 71 59 52 51 47 43 43 42 40 38 24 20 23 33 16 8 24 66 97 92 86 92 100 94 96 96 94 97 53 70 69 64 60 60 60 81 84 89 91 97
88 87 97 90 65 49 54 42 38 36 40 42 41 30 20 18 33 20 8 14 70 97 100 92 89 93 92 96 97 95 94 64 93 86 65 65 75 82 93 93 96 93 94
88 75 95 93 69 85 62 66 51 34 37 38 33 29 25 19 29 26 9 14 77 87 97 92 92 80 88 96 96 94 97 99 97 96 95 93 96 96 96 93 96 94 91
87 91 94 98 88 83 71 62 51 42 37 35 30 31 24 20 26 29 13 8 23 67 90 97 97 94 94 97 97 95 98 99 97 98 96 91 96 92 98 84 94 100 94
94 91 95 94 98 92 88 80 79 46 40 49 46 31 25 21 16 25 21 9 8 19 59 88 96 97 87 90 96 94 86 87 95 90 99 97 97 98 93 81 97 98 98
97 97 97 92 98 98 98 96 92 86 67 67 68 55 29 24 17 20 25 13 10 40 65 96 97 95 94 86 97 96 95 92 93 90 82 92 98 95 97 92 97 97 97
95 96 97 97 96 97 96 91 82 79 89 95 95 81 40 26 24 19 25 18 9 52 70 92 96 100 97 98 97 97 97 96 88 87 95 98 99 98 99 98 96 97 96
96 90 90 89 89 86 86 79 81 87 86 92 100 96 59 29 31 24 25 24 10 29 95 96 97 95 97 97 97 98 95 88 85 94 94 99 97 97 97 97 98 97 98
96 94 92 95 93 92 91 87 84 77 84 90 96 98 76 43 37 30 36 32 15 15 68 86 76 89 97 96 97 96 94 96 92 92 94 93 97 97 98 98 98 99 98
79 73 66 71 72 73 77 79 72 77 89 95 97 96 97 66 44 34 34 41 23 13 44 66 72 92 92 97 98 96 97 95 96 93 93 91 93 97 98 97 98 98 98
58 60 69 84 90 83 84 80 81 91 98 96 94 98 99 77 60 43 37 43 36 15 33 70 79 85 98 97 97 97 98 96 91 95 93 96 96 92 81 83 98 98 86
32 41 67 92 99 95 98 98 95 92 87 97 97 99 97 92 80 52 46 44 47 28 15 18 20 87 96 97 97 97 97 97 98 98 98 95 85 58 38 40 52 73 68
26 31 32 36 44 50 56 65 71 71 83 91 98 94 95 96 75 77 61 58 54 49 28 18 18 49 92 96 97 98 98 96 92 99 98 91 90 74 76 90 53 34 42
28 27 26 29 28 28 44 44 48 65 86 97 99 99 98 96 90 99 76 69 66 66 49 23 20 19 78 97 99 99 96 99 98 82 90 99 90 47 46 82 47 39 44
66 52 40 35 34 35 98 99 98 100 98 94 97 97 96 96 96 87 91 90 83 72 73 68 23 74 97 43 44 99 97 98 98 94 97 99 85 64 69 53 34 36 39